Location: Buckenweiler
(49.0667°N, 10.2500°E)
Time: 17:42:04
(UTC+00:00)

Cosmos 1610 Rocket - Pass Details

Date: 18 January 2026
Orbit: 953 x 1000 km, 82.9° (Epoch: 18 February)

Event Time Altitude Azimuth Distance (km) Brightness Sun altitude
Rises 05:22:27 0° 196° (SSW) 3,615 7.5 -16.5°
Reaches altitude 10° 05:24:57 10° 198° (SSW) 2,674 6.7 -16.1°
Maximum altitude 05:31:02 68° 282° (WNW) 1,027 4.4 -15.1°
Drops below altitude 10° 05:37:11 10° 5° (N) 2,705 6.7 -14.1°
Sets 05:39:44 0° 8° (N) 3,661 7.4 -13.7°
